Location: Unspecified
(0.0000°N, 0.0000°E)
Time: 09:04:32
(UTC+00:00)

Vanguard 2 - All Passes

Search period start: 31 October 2014 00:00
Search period end: 10 November 2014 00:00
Orbit: 553 x 2947 km, 32.9° (Epoch: 30 October)

Date Brightness Start Highest point End Pass type
(mag) Time Alt. Az. Time Alt. Az. Time Alt. Az.
31 Oct - 00:19:06 10° W 00:22:46 34° SSW 00:27:21 10° SE night (unlit)
31 Oct - 06:55:01 10° S 07:02:18 16° SSE 07:10:53 10° ESE daylight
31 Oct - 09:02:14 10° SSW 09:16:44 43° SE 09:33:03 10° E daylight
31 Oct - 11:12:37 10° SW 11:30:25 87° NW 11:46:36 10° NE daylight
31 Oct - 13:28:00 10° W 13:43:30 37° NW 13:55:34 10° NNE daylight
31 Oct - 15:54:04 10° NW 15:56:50 11° NNW 15:59:24 10° NNW daylight
31 Oct - 22:29:52 10° NW 22:33:44 38° NE 22:37:31 10° ESE night (unlit)
01 Nov - 00:39:16 10° WSW 00:42:14 19° SSW 00:45:45 10° SSE night (unlit)
01 Nov - 07:13:21 10° SSW 07:22:38 21° SSE 07:33:59 10° ESE daylight
01 Nov - 09:21:07 10° SW 09:36:27 55° SE 09:53:34 10° ENE daylight
01 Nov - 11:32:18 10° WSW 11:49:58 70° NW 12:05:49 10° NE daylight
01 Nov - 13:49:31 10° W 14:03:15 28° NNW 14:14:08 10° NNE daylight
01 Nov - 22:48:50 10° NW 22:52:55 86° NE 22:57:01 10° SE night (unlit)
02 Nov - 01:01:19 10° SSW 01:01:53 10° SSW 01:02:27 10° SSW night (unlit)
02 Nov - 07:31:49 10° SSW 07:42:41 28° SSE 07:56:17 10° E daylight
02 Nov - 09:40:08 10° SW 09:56:03 69° SE 10:13:38 10° ENE daylight
02 Nov - 11:52:20 10° WSW 12:09:33 56° NW 12:24:51 10° NE daylight
02 Nov - 14:11:46 10° WNW 14:23:14 21° NNW 14:32:35 10° NNE daylight
02 Nov - 21:00:18 10° NNW 21:03:34 17° NNE 21:06:22 10° ENE night (unlit)
02 Nov - 23:08:16 10° WNW 23:12:06 42° SW 23:16:02 10° SE night (unlit)
03 Nov - 05:46:42 10° SSE 05:48:58 11° SSE 05:51:25 10° SE daylight
03 Nov - 07:50:24 10° SSW 08:02:28 36° SE 08:17:51 10° E daylight
03 Nov - 09:59:21 10° SW 10:15:36 85° SE 10:33:20 10° NE daylight
03 Nov - 12:12:49 10° W 12:29:14 44° NW 12:43:44 10° NNE daylight
03 Nov - 14:34:48 10° WNW 14:43:32 16° NNW 14:50:54 10° N daylight
03 Nov - 21:18:36 10° NNW 21:23:02 32° NNE 21:26:39 10° E night (unlit)
03 Nov - 23:28:19 10° W 23:31:21 21° SSW 23:34:30 10° SSE night (unlit)
04 Nov - 06:03:15 10° S 06:09:14 15° SSE 06:16:27 10° ESE daylight
04 Nov - 08:09:06 10° SSW 08:22:04 47° SE 08:38:47 10° ENE daylight
04 Nov - 10:18:47 10° WSW 10:35:10 78° NW 10:52:45 10° NE daylight
04 Nov - 12:33:49 10° W 12:49:06 34° NNW 13:02:30 10° NNE daylight
04 Nov - 14:58:39 10° NW 15:04:07 12° NNW 15:08:58 10° N daylight
04 Nov - 19:30:37 10° N 19:32:34 11° NNE 19:34:20 10° NE visible
04 Nov - 21:37:28 10° NW 21:42:21 65° NE 21:46:16 10° ESE night (unlit)
04 Nov - 23:50:02 10° SW 23:50:44 10° SSW 23:51:28 10° SSW night (unlit)
05 Nov - 06:21:09 10° S 06:29:11 21° SE 06:39:35 10° ESE daylight
05 Nov - 08:27:56 10° SW 08:41:33 60° SE 08:59:10 10° ENE daylight
05 Nov - 10:38:32 10° WSW 10:54:48 63° NW 11:11:57 10° NE daylight
05 Nov - 12:55:27 10° W 13:09:11 27° NNW 13:21:12 10° NNE daylight
05 Nov - 19:47:59 10° NNW 19:52:26 19° NNE 19:55:53 10° ENE visible
05 Nov - 21:56:48 10° WNW 22:01:31 59° SW 22:05:24 10° SE night (unlit)
06 Nov - 06:39:24 10° SSW 06:48:52 29° SE 07:01:44 10° E daylight
06 Nov - 08:46:58 10° SW 09:01:00 76° SE 09:19:08 10° ENE daylight
06 Nov - 10:58:39 10° WSW 11:14:34 50° NNW 11:30:59 10° NE daylight
06 Nov - 13:17:44 10° WNW 13:29:34 21° NNW 13:39:55 10° NNE daylight
06 Nov - 20:06:23 10° NNW 20:12:06 31° NNE 20:16:11 10° E visible
06 Nov - 22:16:39 10° W 22:20:37 28° SW 22:24:03 10° SSE night (unlit)
07 Nov - 06:57:52 10° SSW 07:08:20 38° SE 07:23:07 10° E daylight
07 Nov - 09:06:12 10° SW 09:20:29 86° NW 09:38:46 10° NE daylight
07 Nov - 11:19:14 10° W 11:34:29 39° NNW 11:49:54 10° NNE daylight
07 Nov - 13:40:37 10° NW 13:50:14 17° NNW 13:58:42 10° NNE daylight
07 Nov - 18:16:28 10° NNW 18:20:55 14° NNE 18:24:30 10° NE visible
07 Nov - 20:25:14 10° NW 20:31:34 54° NNE 20:35:52 10° ESE visible
07 Nov - 22:37:24 10° WSW 22:39:45 14° SW 22:41:57 10° S night (unlit)
08 Nov - 05:11:47 10° S 05:16:23 14° SE 05:21:55 10° ESE visible
08 Nov - 07:16:31 10° SW 07:27:40 51° SE 07:43:52 10° ENE daylight
08 Nov - 09:25:42 10° WSW 09:40:06 70° NW 09:58:08 10° NE daylight
08 Nov - 11:40:20 10° W 11:54:38 31° NNW 12:08:46 10° NNE daylight
08 Nov - 14:03:48 10° NW 14:11:10 14° NNW 14:17:44 10° NNE daylight
08 Nov - 16:25:50 10° N 16:27:42 10° N 16:29:27 10° NNE daylight
08 Nov - 18:34:35 10° NNW 18:40:57 21° NNE 18:45:33 10° ENE visible
08 Nov - 20:44:30 10° WNW 20:50:49 81° SW 20:55:07 10° SE visible
09 Nov - 05:29:16 10° S 05:36:00 20° SE 05:45:00 10° E daylight
09 Nov - 07:35:22 10° SW 07:46:58 67° SE 08:04:07 10° ENE daylight
09 Nov - 09:45:32 10° WSW 09:59:51 55° NNW 10:17:18 10° NE daylight
09 Nov - 12:02:01 10° WNW 12:15:04 25° NNW 12:27:40 10° NNE daylight
09 Nov - 14:26:36 10° NNW 14:32:17 12° N 14:37:23 10° NNE daylight
09 Nov - 16:43:23 10° NNW 16:48:21 13° N 16:52:29 10° NE daylight
09 Nov - 18:53:09 10° NW 19:00:47 32° NNE 19:05:50 10° E visible
09 Nov - 21:04:12 10° WNW 21:09:53 42° SW 21:13:58 10° SSE visible
